{"data":{"norad_id":47625,"intl_designator":"2021-012F","name":"STARLINK-1704","alt_names":[],"object_type":"PAYLOAD","status":"ACTIVE","operator":null,"country":"US","launch_date":"2021-02-16","launch_site_code":"AFETR","launch_vehicle":null,"mission":null,"orbit_class":"UNKNOWN","rcs_meters":null,"size_class":null,"mass_kg":null,"dimensions":null,"purposes":["comms"],"wikipedia_slug":null,"has_3d_model":false,"image_url":null,"decayed_at":null,"tle_current":{"epoch":"2026-05-25T04:20:10.784832Z","epoch_age_seconds":66393,"freshness":"FRESH","line1":"1 47625U 21012F   26145.18068038  .00054153  00000+0  79641-3 0  9999","line2":"2 47625  53.0474  56.0306 0007285  90.9549 269.2296 15.54927305291961","mean_motion":15.54927305,"eccentricity":0.0007285,"inclination_deg":53.0474,"raan_deg":56.0306,"arg_perigee_deg":90.9549,"mean_anomaly_deg":269.2296,"bstar":0.00079641,"rev_number":29196,"period_min":92.608830996122,"perigee_km":397.42435805169,"apogee_km":407.30354794021,"semimajor_km":6780.5009529959,"source":"CELESTRAK","updated_at":"2026-05-25T13:38:16.559835Z"}}}